Date,TemperatureHighF,TemperatureAvgF,TemperatureLowF,DewpointHighF,DewpointAvgF,DewpointLowF,HumidityHigh,HumidityAvg,HumidityLow,PressureMaxIn,PressureMinIn,WindSpeedMaxMPH,WindSpeedAvgMPH,GustSpeedMaxMPH,PrecipitationSumIn
2013-12-1,54,52,45,51,48,40,93,89,83,29.95,29.60,10,3,10,0.00
2013-12-2,48,42,38,41,37,35,90,83,72,29.92,29.67,6,1,6,0.00
2013-12-3,41,37,32,35,29,26,88,74,61,30.17,29.92,9,2,11,0.00
2013-12-4,40,33,29,32,27,25,87,79,70,30.21,30.15,4,1,4,0.00
2013-12-5,35,31,28,27,25,19,86,76,61,30.18,30.05,5,1,5,0.00
2013-12-6,34,30,26,20,14,10,62,51,42,30.09,30.00,10,2,10,0.00
2013-12-7,31,26,23,13,11,8,62,52,40,30.29,30.08,7,1,7,0.00
2013-12-8,36,29,24,24,18,13,70,65,59,30.43,30.28,4,1,4,0.00
2013-12-9,35,32,27,28,24,19,76,72,69,30.45,30.34,3,1,3,0.00
2013-12-10,40,38,35,35,32,28,82,80,75,30.35,30.27,4,1,4,0.00
2013-12-11,41,37,33,37,33,29,89,86,81,30.28,30.02,4,0,4,0.00
2013-12-12,43,40,36,41,37,33,92,89,83,30.03,29.91,7,1,7,0.00
2013-12-13,49,46,43,46,44,41,94,92,91,30.28,29.99,8,1,8,0.00
2013-12-14,49,47,46,46,44,44,91,90,86,30.29,30.18,8,2,8,0.00
2013-12-15,51,49,48,48,47,45,93,91,86,30.31,30.18,6,2,6,0.00
2013-12-16,52,46,42,48,44,40,94,92,86,30.35,30.13,2,0,2,0.00
2013-12-17,45,44,42,43,42,40,94,92,90,30.13,29.97,3,1,3,0.00
2013-12-18,45,43,38,43,39,34,92,84,72,30.01,29.89,4,1,4,0.00
2013-12-19,40,37,33,35,30,28,87,77,69,30.21,30.01,2,0,2,0.00
2013-12-20,43,38,34,42,35,30,94,88,76,30.06,29.57,9,2,9,0.00
2013-12-21,45,43,41,44,42,39,94,94,93,30.02,29.70,4,0,4,0.00
2013-12-22,62,54,45,57,49,44,96,86,69,30.14,29.84,4,0,4,0.00
2013-12-23,63,61,60,52,50,49,69,66,65,30.12,29.73,0,0,0,0.00
2013-12-24,63,61,59,50,48,46,65,63,61,30.23,30.12,0,0,0,0.00
2013-12-25,62,60,58,48,46,44,61,59,58,30.14,29.99,0,0,0,0.00
2013-12-26,64,60,58,49,46,44,60,58,57,30.01,29.81,0,0,0,0.10
2013-12-27,63,60,58,48,46,43,61,59,57,29.97,29.73,0,0,0,0.00
2013-12-28,62,52,40,49,43,36,88,73,60,30.13,29.97,2,0,2,0.06
2013-12-29,45,42,39,41,39,36,91,89,87,30.08,29.91,3,0,3,0.01
2013-12-30,45,43,41,42,40,38,92,90,88,29.92,29.72,6,0,6,0.00
2013-12-31,47,45,42,44,43,40,93,91,87,29.98,29.79,5,1,5,0.01